THOR ABLESTAR DEB, 655

Orbit data source: Space-Track

THOR ABLESTAR DEB, 655 is space debris in LEO originally from a launch on Thu, 29 Jun 1961 UTC launched from the Air Force Eastern Test Range (AFETR). Debris objects in space refer to the collection of defunct objects orbiting the Earth. Examples of debris include non-operational satellites, rocket bodies, and fragments generated from explosions, collisions, or faulty payload assembly.

Loading next visibility...
Identifier
655, 1961-015HG
Orbit
LEO
Country
Flag of USUS
Related business
Manufacturer
Unknown
Mission
Spacecraft
Bus & Motor
Unknown
Mass
Unknown
Launch date (UTC)
1961-06-29 (65 years ago)
Launch vehicle
Unknown
Launch site
Air Force Eastern Test Range (AFETR)
Object type
Payload
Rocket body
Debris
Shape & HBR
Unknown shape, 0.1 m
Radar Cross Section
Medium (>0.1 m² and <1 m²)

Expand to show TLE details & history
Last TLE update: 1 day ago

TLE from 1 day ago
0 THOR ABLESTAR DEB
1 00655U 61015HG  26171.18045443  .00000420  00000-0  99377-3 0  9999
2 00655  67.2599 234.7538 0368891 318.0053  69.1551 13.09554700 87324
Epoch: 2026-06-20T04:19Z
TLE epoch observation values (Epoch: 2026-06-20T04:19:51.262Z)
Latitude
28.57308°
Longitude
-85.48243°
Altitude
1,136.961 km
Speed
7.33 km/s
True Right ascension
16h 31m 31s
True Declination
28° 26' 10"
Sunlit
Object was in full shadow at epoch
Visualization orbit readout
Latitude
Unknown
Longitude
Unknown
Altitude
Unknown
Speed
Unknown
Apparent Right ascension
Unknown
Apparent Declination
Unknown
Sunlit
N/A
Visualization observer readout
Local Sidereal Time
23:25:37
Azimuth
Unknown
Elevation
Unknown
Doppler factor
Unknown
Orbital elements
Apogee altitude
1,503.695 km
Perigee altitude
942.876 km
Semi-major axis
7,601.423 km
Eccentricity
0.03689
Inclination
67.2599°
RAAN
234.7538°
Arg. of periapsis
318.0053°
True anomaly
73.16817°
Mean anomaly
69.1551°
Eccentric anomaly
71.1554°
Mean motion
3.27492 °/min
Orbital period
109.93 mins
BSTAR
0.00099377
Loading maneuver chart data...
Computing Atmospheric mass density...

Documentation

Showing up to 5 results
|